sat.trackr.live / text

‹ back to catalog

TRANSPORTER-11 OBJECT BF

NORAD 60521 · 2024-149BF

PAYLOAD ACTIVE UNKNOWN

§ Identity

Operator
Country
TBD
Launch date
2024-08-16
Launch site
AFWTR
Launch vehicle
Mass (kg)
RCS (m²)

External: N2YO · Heavens-Above · Gunter

§ Orbital elements

Epoch: 2026-07-21T12:59:06.126432Z

Period
87.57 min
Inclination
97.3689°
Eccentricity
0.0013492
Mean motion
16.44354617 rev/d
Perigee alt
145.4 km
Apogee alt
163.1 km
Semi-major
6,532.4 km
B*
3.0307e-4
RAAN
301.9473°
Arg perigee
271.8896°
Mean anomaly
88.0860°
Rev number
10,857

§ Raw data

TRANSPORTER-11 OBJECT BF1 60521U 24149BF  26202.54104313  .10981040  25523-5  30307-3 0  99982 60521  97.3689 301.9473 0013492 271.8896  88.0860 16.44354617108577

JSON: /api/v1/satellites/60521 · /tle

For live sub-satellite position, see the globe view (requires WebGL).

§ Visibility from observer

Set your observer location to see the next 7 days of passes ≥ 10°. The values pass through the URL so the page stays shareable.

No JS? Fill the form by hand. The geolocation button needs JavaScript.

§ Radio — SatNOGS DB

ModeDescriptionDownlinkUplink
BPSK S-band telemetry 2.219 GHz

1 transmitter · refreshed weekly from db.satnogs.org